Wetterdaten: Montag, 22.06.2015
Datum Zeit Temp. A. Feuchte A. Luftdruck Regen Wind Richtung Richtung Sonnenschein ET UV Solar Taupunkt Windchill Windben Empfang
22.06.2015 00:00 10,5 C 91 % 1017,1 hPa 0,0 l/m 0,0 km/h (0 Bft) S 173 0 min 0,000 mm 0,0 UV-I 0 W/m 9,1 C 10,5 C 0,0 km/h (0 Bft) 0,00 %
22.06.2015 00:05 10,5 C 91 % 1017,0 hPa 0,0 l/m 0,0 km/h (0 Bft) S 182 0 min 0,000 mm 0,0 UV-I 0 W/m 9,1 C 10,5 C 0,0 km/h (0 Bft) 0,00 %
22.06.2015 00:10 10,6 C 91 % 1017,1 hPa 0,0 l/m 0,0 km/h (0 Bft) S 182 0 min 0,000 mm 0,0 UV-I 0 W/m 9,2 C 10,6 C 0,0 km/h (0 Bft) 0,00 %
22.06.2015 00:15 10,7 C 90 % 1016,8 hPa 0,0 l/m 0,0 km/h (0 Bft) S 182 0 min 0,000 mm 0,0 UV-I 0 W/m 9,1 C 10,7 C 0,0 km/h (0 Bft) 0,00 %
22.06.2015 00:20 10,7 C 90 % 1016,6 hPa 0,0 l/m 0,0 km/h (0 Bft) S 182 0 min 0,000 mm 0,0 UV-I 0 W/m 9,1 C 10,7 C 0,0 km/h (0 Bft) 0,00 %
22.06.2015 00:25 10,8 C 90 % 1016,7 hPa 0,0 l/m 0,0 km/h (0 Bft) W 279 0 min 0,000 mm 0,0 UV-I 0 W/m 9,2 C 10,8 C 0,0 km/h (0 Bft) 0,00 %
22.06.2015 00:30 10,9 C 90 % 1016,6 hPa 0,0 l/m 0,0 km/h (0 Bft) S 182 0 min 0,000 mm 0,0 UV-I 0 W/m 9,3 C 10,9 C 0,0 km/h (0 Bft) 0,00 %
22.06.2015 00:35 10,8 C 90 % 1016,7 hPa 0,0 l/m 0,0 km/h (0 Bft) SO 136 0 min 0,000 mm 0,0 UV-I 0 W/m 9,2 C 10,8 C 0,0 km/h (0 Bft) 0,00 %
22.06.2015 00:40 10,7 C 90 % 1016,6 hPa 0,0 l/m 0,0 km/h (0 Bft) S-SO 151 0 min 0,000 mm 0,0 UV-I 0 W/m 9,1 C 10,7 C 0,0 km/h (0 Bft) 0,00 %
22.06.2015 00:45 10,6 C 90 % 1016,5 hPa 0,0 l/m 0,0 km/h (0 Bft) S 173 0 min 0,000 mm 0,0 UV-I 0 W/m 9,0 C 10,6 C 0,0 km/h (0 Bft) 0,00 %
22.06.2015 00:50 10,6 C 90 % 1016,5 hPa 0,0 l/m 0,0 km/h (0 Bft) S-SO 167 0 min 0,000 mm 0,0 UV-I 0 W/m 9,0 C 10,6 C 0,0 km/h (0 Bft) 0,00 %
22.06.2015 00:55 10,6 C 91 % 1016,6 hPa 0,0 l/m 0,0 km/h (0 Bft) SO 142 0 min 0,000 mm 0,0 UV-I 0 W/m 9,2 C 10,6 C 0,0 km/h (0 Bft) 0,00 %
22.06.2015 01:00 10,7 C 91 % 1016,1 hPa 0,0 l/m 0,0 km/h (0 Bft) S-SO 147 0 min 0,000 mm 0,0 UV-I 0 W/m 9,3 C 10,7 C 0,0 km/h (0 Bft) 0,00 %
22.06.2015 01:05 10,7 C 90 % 1016,2 hPa 0,0 l/m 0,0 km/h (0 Bft) S 174 0 min 0,000 mm 0,0 UV-I 0 W/m 9,1 C 10,7 C 0,0 km/h (0 Bft) 0,00 %
22.06.2015 01:10 10,7 C 90 % 1016,0 hPa 0,0 l/m 0,0 km/h (0 Bft) S-SO 148 0 min 0,000 mm 0,0 UV-I 0 W/m 9,1 C 10,7 C 0,0 km/h (0 Bft) 0,00 %
22.06.2015 01:15 10,8 C 90 % 1016,1 hPa 0,0 l/m 0,0 km/h (0 Bft) S-SO 150 0 min 0,000 mm 0,0 UV-I 0 W/m 9,2 C 10,8 C 0,0 km/h (0 Bft) 0,00 %
22.06.2015 01:20 10,8 C 90 % 1015,9 hPa 0,0 l/m 0,0 km/h (0 Bft) S 180 0 min 0,000 mm 0,0 UV-I 0 W/m 9,2 C 10,8 C 0,0 km/h (0 Bft) 0,00 %
22.06.2015 01:25 10,8 C 90 % 1016,1 hPa 0,0 l/m 0,0 km/h (0 Bft) SO 145 0 min 0,000 mm 0,0 UV-I 0 W/m 9,2 C 10,8 C 0,0 km/h (0 Bft) 0,00 %
22.06.2015 01:30 10,7 C 90 % 1016,1 hPa 0,0 l/m 0,0 km/h (0 Bft) SO 136 0 min 0,000 mm 0,0 UV-I 0 W/m 9,1 C 10,7 C 0,0 km/h (0 Bft) 0,00 %
22.06.2015 01:35 10,7 C 90 % 1015,9 hPa 0,0 l/m 0,0 km/h (0 Bft) SO 133 0 min 0,000 mm 0,0 UV-I 0 W/m 9,1 C 10,7 C 0,0 km/h (0 Bft) 0,00 %
22.06.2015 01:40 10,6 C 91 % 1015,8 hPa 0,0 l/m 0,0 km/h (0 Bft) SO 132 0 min 0,000 mm 0,0 UV-I 0 W/m 9,2 C 10,6 C 0,0 km/h (0 Bft) 0,00 %
22.06.2015 01:45 10,6 C 91 % 1015,9 hPa 0,0 l/m 0,0 km/h (0 Bft) SO 132 0 min 0,000 mm 0,0 UV-I 0 W/m 9,2 C 10,6 C 0,0 km/h (0 Bft) 0,00 %
22.06.2015 01:50 10,6 C 91 % 1015,7 hPa 0,0 l/m 0,0 km/h (0 Bft) SO 135 0 min 0,000 mm 0,0 UV-I 0 W/m 9,2 C 10,6 C 0,0 km/h (0 Bft) 0,00 %
22.06.2015 01:55 10,6 C 91 % 1015,7 hPa 0,0 l/m 0,0 km/h (0 Bft) O-SO 116 0 min 0,000 mm 0,0 UV-I 0 W/m 9,2 C 10,6 C 0,0 km/h (0 Bft) 0,00 %
22.06.2015 02:00 10,6 C 91 % 1015,6 hPa 0,0 l/m 0,0 km/h (0 Bft) O-SO 119 0 min 0,000 mm 0,0 UV-I 0 W/m 9,2 C 10,6 C 0,0 km/h (0 Bft) 0,00 %
22.06.2015 02:05 10,6 C 92 % 1015,6 hPa 0,0 l/m 0,0 km/h (0 Bft) O-SO 119 0 min 0,000 mm 0,0 UV-I 0 W/m 9,4 C 10,6 C 0,0 km/h (0 Bft) 0,00 %
22.06.2015 02:10 10,6 C 92 % 1015,7 hPa 0,0 l/m 0,0 km/h (0 Bft) O-SO 118 0 min 0,000 mm 0,0 UV-I 0 W/m 9,4 C 10,6 C 0,0 km/h (0 Bft) 0,00 %
22.06.2015 02:15 10,6 C 92 % 1015,5 hPa 0,0 l/m 0,0 km/h (0 Bft) O 93 0 min 0,000 mm 0,0 UV-I 0 W/m 9,4 C 10,6 C 0,0 km/h (0 Bft) 0,00 %
22.06.2015 02:20 10,7 C 92 % 1015,7 hPa 0,0 l/m 0,0 km/h (0 Bft) O-SO 112 0 min 0,000 mm 0,0 UV-I 0 W/m 9,5 C 10,7 C 0,0 km/h (0 Bft) 0,00 %
22.06.2015 02:25 10,7 C 91 % 1015,5 hPa 0,0 l/m 0,0 km/h (0 Bft) NO 43 0 min 0,000 mm 0,0 UV-I 0 W/m 9,3 C 10,7 C 0,0 km/h (0 Bft) 0,00 %
22.06.2015 02:30 10,7 C 91 % 1015,4 hPa 0,0 l/m 0,0 km/h (0 Bft) SO 132 0 min 0,000 mm 0,0 UV-I 0 W/m 9,3 C 10,7 C 0,0 km/h (0 Bft) 0,00 %
22.06.2015 02:35 10,7 C 91 % 1015,5 hPa 0,0 l/m 0,0 km/h (0 Bft) O-SO 102 0 min 0,000 mm 0,0 UV-I 0 W/m 9,3 C 10,7 C 0,0 km/h (0 Bft) 0,00 %
22.06.2015 02:40 10,8 C 92 % 1015,4 hPa 0,0 l/m 0,0 km/h (0 Bft) O-SO 113 0 min 0,000 mm 0,0 UV-I 0 W/m 9,6 C 10,8 C 0,0 km/h (0 Bft) 0,00 %
22.06.2015 02:45 10,8 C 92 % 1015,5 hPa 0,0 l/m 0,0 km/h (0 Bft) SO 128 0 min 0,000 mm 0,0 UV-I 0 W/m 9,6 C 10,8 C 0,0 km/h (0 Bft) 0,00 %
22.06.2015 02:50 10,8 C 92 % 1015,3 hPa 0,0 l/m 0,0 km/h (0 Bft) SO 128 0 min 0,000 mm 0,0 UV-I 0 W/m 9,6 C 10,8 C 0,0 km/h (0 Bft) 0,00 %
22.06.2015 02:55 10,8 C 92 % 1015,5 hPa 0,0 l/m 0,0 km/h (0 Bft) SO 128 0 min 0,000 mm 0,0 UV-I 0 W/m 9,6 C 10,8 C 0,0 km/h (0 Bft) 0,00 %
22.06.2015 03:00 10,8 C 92 % 1015,6 hPa 0,0 l/m 0,0 km/h (0 Bft) S 190 0 min 0,000 mm 0,0 UV-I 0 W/m 9,6 C 10,8 C 0,0 km/h (0 Bft) 0,00 %
22.06.2015 03:05 10,9 C 92 % 1015,7 hPa 0,0 l/m 0,0 km/h (0 Bft) O-SO 107 0 min 0,000 mm 0,0 UV-I 0 W/m 9,7 C 10,9 C 0,0 km/h (0 Bft) 0,00 %
22.06.2015 03:10 10,9 C 92 % 1015,7 hPa 0,0 l/m 0,0 km/h (0 Bft) S-SW 203 0 min 0,000 mm 0,0 UV-I 0 W/m 9,7 C 10,9 C 0,0 km/h (0 Bft) 0,00 %
22.06.2015 03:15 10,9 C 92 % 1015,7 hPa 0,0 l/m 0,0 km/h (0 Bft) S 173 0 min 0,000 mm 0,0 UV-I 0 W/m 9,7 C 10,9 C 0,0 km/h (0 Bft) 0,00 %
22.06.2015 03:20 10,9 C 92 % 1015,5 hPa 0,3 l/m 0,0 km/h (0 Bft) S 174 0 min 0,000 mm 0,0 UV-I 0 W/m 9,7 C 10,9 C 0,0 km/h (0 Bft) 0,00 %
22.06.2015 03:25 11,0 C 92 % 1015,3 hPa 0,0 l/m 0,0 km/h (0 Bft) SO 131 0 min 0,000 mm 0,0 UV-I 0 W/m 9,8 C 11,0 C 0,0 km/h (0 Bft) 0,00 %
22.06.2015 03:30 11,1 C 92 % 1015,3 hPa 0,0 l/m 0,0 km/h (0 Bft) S 172 0 min 0,000 mm 0,0 UV-I 0 W/m 9,8 C 11,1 C 0,0 km/h (0 Bft) 0,00 %
22.06.2015 03:35 11,1 C 91 % 1015,2 hPa 0,0 l/m 0,0 km/h (0 Bft) O-SO 104 0 min 0,000 mm 0,0 UV-I 0 W/m 9,7 C 11,1 C 0,0 km/h (0 Bft) 0,00 %
22.06.2015 03:40 11,2 C 91 % 1015,1 hPa 0,0 l/m 0,0 km/h (0 Bft) O 85 0 min 0,000 mm 0,0 UV-I 0 W/m 9,8 C 11,2 C 0,0 km/h (0 Bft) 0,00 %
22.06.2015 03:45 11,2 C 91 % 1015,3 hPa 0,0 l/m 0,0 km/h (0 Bft) SO 138 0 min 0,000 mm 0,0 UV-I 0 W/m 9,8 C 11,2 C 0,0 km/h (0 Bft) 0,00 %
22.06.2015 03:50 11,3 C 91 % 1015,4 hPa 0,0 l/m 0,0 km/h (0 Bft) S-SO 147 0 min 0,000 mm 0,0 UV-I 0 W/m 9,9 C 11,3 C 0,0 km/h (0 Bft) 0,00 %
22.06.2015 03:55 11,3 C 91 % 1015,2 hPa 0,0 l/m 0,0 km/h (0 Bft) SO 137 0 min 0,000 mm 0,0 UV-I 0 W/m 9,9 C 11,3 C 0,0 km/h (0 Bft) 0,00 %
22.06.2015 04:00 11,3 C 91 % 1015,4 hPa 0,0 l/m 0,0 km/h (0 Bft) SO 144 0 min 0,000 mm 0,0 UV-I 0 W/m 9,9 C 11,3 C 0,0 km/h (0 Bft) 0,00 %
22.06.2015 04:05 11,3 C 91 % 1015,4 hPa 0,0 l/m 0,0 km/h (0 Bft) S 187 0 min 0,000 mm 0,0 UV-I 0 W/m 9,9 C 11,3 C 0,0 km/h (0 Bft) 0,00 %
22.06.2015 04:10 11,3 C 91 % 1015,5 hPa 0,0 l/m 0,0 km/h (0 Bft) S 180 0 min 0,000 mm 0,0 UV-I 0 W/m 9,9 C 11,3 C 0,0 km/h (0 Bft) 0,00 %
22.06.2015 04:15 11,4 C 91 % 1015,4 hPa 0,0 l/m 0,4 km/h (0 Bft) SO 136 0 min 0,000 mm 0,0 UV-I 0 W/m 10,0 C 11,4 C 4,0 km/h (1 Bft) 0,00 %
22.06.2015 04:20 11,4 C 91 % 1015,3 hPa 0,0 l/m 0,0 km/h (0 Bft) S 188 0 min 0,000 mm 0,0 UV-I 0 W/m 10,0 C 11,4 C 0,0 km/h (0 Bft) 0,00 %
22.06.2015 04:25 11,4 C 91 % 1015,2 hPa 0,0 l/m 0,0 km/h (0 Bft) S-SO 150 0 min 0,000 mm 0,0 UV-I 0 W/m 10,0 C 11,4 C 0,0 km/h (0 Bft) 0,00 %
22.06.2015 04:30 11,4 C 91 % 1015,2 hPa 0,3 l/m 0,0 km/h (0 Bft) SO 141 0 min 0,000 mm 0,0 UV-I 0 W/m 10,0 C 11,4 C 0,0 km/h (0 Bft) 0,00 %
22.06.2015 04:35 11,4 C 91 % 1015,2 hPa 0,0 l/m 0,0 km/h (0 Bft) S 172 0 min 0,000 mm 0,0 UV-I 0 W/m 10,0 C 11,4 C 0,0 km/h (0 Bft) 0,00 %
22.06.2015 04:40 11,4 C 91 % 1015,2 hPa 0,0 l/m 0,0 km/h (0 Bft) S-SO 156 0 min 0,000 mm 0,0 UV-I 0 W/m 10,0 C 11,4 C 0,0 km/h (0 Bft) 0,00 %
22.06.2015 04:45 11,5 C 91 % 1015,3 hPa 0,0 l/m 0,0 km/h (0 Bft) S-SO 167 0 min 0,000 mm 0,0 UV-I 0 W/m 10,1 C 11,5 C 0,0 km/h (0 Bft) 0,00 %
22.06.2015 04:50 11,5 C 91 % 1015,3 hPa 0,0 l/m 0,0 km/h (0 Bft) SO 145 0 min 0,000 mm 0,0 UV-I 0 W/m 10,1 C 11,5 C 0,0 km/h (0 Bft) 0,00 %
22.06.2015 04:55 11,5 C 92 % 1015,3 hPa 0,0 l/m 0,0 km/h (0 Bft) S-SW 198 0 min 0,000 mm 0,0 UV-I 0 W/m 10,2 C 11,5 C 0,0 km/h (0 Bft) 0,00 %
22.06.2015 05:00 11,5 C 92 % 1015,3 hPa 0,0 l/m 0,0 km/h (0 Bft) SO 140 0 min 0,000 mm 0,0 UV-I 0 W/m 10,2 C 11,5 C 0,0 km/h (0 Bft) 0,00 %
22.06.2015 05:05 11,4 C 92 % 1015,3 hPa 0,0 l/m 0,0 km/h (0 Bft) SO 124 0 min 0,000 mm 0,0 UV-I 0 W/m 10,1 C 11,4 C 0,0 km/h (0 Bft) 0,00 %
22.06.2015 05:10 11,4 C 92 % 1015,4 hPa 0,0 l/m 0,0 km/h (0 Bft) SO 139 0 min 0,000 mm 0,0 UV-I 0 W/m 10,1 C 11,4 C 0,0 km/h (0 Bft) 0,00 %
22.06.2015 05:15 11,4 C 92 % 1015,3 hPa 0,0 l/m 0,0 km/h (0 Bft) SO 129 0 min 0,000 mm 0,0 UV-I 0 W/m 10,1 C 11,4 C 0,0 km/h (0 Bft) 0,00 %
22.06.2015 05:20 11,3 C 93 % 1015,3 hPa 0,0 l/m 0,0 km/h (0 Bft) SO 132 0 min 0,000 mm 0,0 UV-I 1 W/m 10,2 C 11,3 C 0,0 km/h (0 Bft) 0,00 %
22.06.2015 05:25 11,3 C 93 % 1015,3 hPa 0,0 l/m 0,0 km/h (0 Bft) SO 132 0 min 0,000 mm 0,0 UV-I 4 W/m 10,2 C 11,3 C 0,0 km/h (0 Bft) 0,00 %
22.06.2015 05:30 11,3 C 93 % 1015,4 hPa 0,0 l/m 0,0 km/h (0 Bft) S 175 0 min 0,000 mm 0,0 UV-I 1 W/m 10,2 C 11,3 C 0,0 km/h (0 Bft) 0,00 %
22.06.2015 05:35 11,3 C 93 % 1015,3 hPa 0,0 l/m 0,0 km/h (0 Bft) S 175 0 min 0,000 mm 0,0 UV-I 1 W/m 10,2 C 11,3 C 0,0 km/h (0 Bft) 0,00 %
22.06.2015 05:40 11,3 C 93 % 1015,2 hPa 0,0 l/m 0,0 km/h (0 Bft) S 175 0 min 0,000 mm 0,0 UV-I 3 W/m 10,2 C 11,3 C 0,0 km/h (0 Bft) 0,00 %
22.06.2015 05:45 11,3 C 93 % 1015,2 hPa 0,0 l/m 0,0 km/h (0 Bft) S 175 0 min 0,000 mm 0,0 UV-I 9 W/m 10,2 C 11,3 C 0,0 km/h (0 Bft) 0,00 %
22.06.2015 05:50 11,4 C 94 % 1015,2 hPa 0,0 l/m 0,0 km/h (0 Bft) S 175 0 min 0,000 mm 0,0 UV-I 26 W/m 10,5 C 11,4 C 0,0 km/h (0 Bft) 0,00 %
22.06.2015 05:55 11,5 C 94 % 1015,3 hPa 0,0 l/m 0,0 km/h (0 Bft) S 175 0 min 0,000 mm 0,0 UV-I 39 W/m 10,6 C 11,5 C 0,0 km/h (0 Bft) 0,00 %
22.06.2015 06:00 11,8 C 94 % 1015,2 hPa 0,0 l/m 0,0 km/h (0 Bft) S 175 5 min 0,000 mm 0,0 UV-I 67 W/m 10,9 C 11,8 C 0,0 km/h (0 Bft) 0,00 %
22.06.2015 06:05 12,6 C 93 % 1015,2 hPa 0,0 l/m 0,0 km/h (0 Bft) S 176 5 min 0,000 mm 0,0 UV-I 170 W/m 11,5 C 12,6 C 0,0 km/h (0 Bft) 0,00 %
22.06.2015 06:10 13,6 C 93 % 1015,0 hPa 0,0 l/m 0,0 km/h (0 Bft) S 176 5 min 0,000 mm 0,0 UV-I 260 W/m 12,5 C 13,6 C 0,0 km/h (0 Bft) 0,00 %
22.06.2015 06:15 14,0 C 90 % 1014,9 hPa 0,0 l/m 0,0 km/h (0 Bft) S 176 0 min 0,000 mm 0,0 UV-I 81 W/m 12,4 C 14,0 C 0,0 km/h (0 Bft) 0,00 %
22.06.2015 06:20 13,8 C 86 % 1015,0 hPa 0,0 l/m 0,0 km/h (0 Bft) S 176 0 min 0,000 mm 0,0 UV-I 67 W/m 11,5 C 13,8 C 0,0 km/h (0 Bft) 0,00 %
22.06.2015 06:25 13,7 C 85 % 1015,0 hPa 0,0 l/m 0,0 km/h (0 Bft) S 176 0 min 0,000 mm 1,0 UV-I 92 W/m 11,2 C 13,7 C 0,0 km/h (0 Bft) 0,00 %
22.06.2015 06:30 13,7 C 85 % 1015,0 hPa 0,0 l/m 0,0 km/h (0 Bft) S 176 5 min 0,000 mm 0,0 UV-I 117 W/m 11,2 C 13,7 C 0,0 km/h (0 Bft) 0,00 %
22.06.2015 06:35 13,8 C 84 % 1015,0 hPa 0,0 l/m 0,0 km/h (0 Bft) SO 146 0 min 0,000 mm 0,0 UV-I 107 W/m 11,1 C 13,8 C 0,0 km/h (0 Bft) 0,00 %
22.06.2015 06:40 13,7 C 84 % 1015,0 hPa 0,0 l/m 0,0 km/h (0 Bft) S 173 0 min 0,000 mm 0,0 UV-I 43 W/m 11,0 C 13,7 C 0,0 km/h (0 Bft) 0,00 %
22.06.2015 06:45 13,5 C 85 % 1015,2 hPa 0,0 l/m 0,0 km/h (0 Bft) S 176 0 min 0,000 mm 1,0 UV-I 59 W/m 11,0 C 13,5 C 0,0 km/h (0 Bft) 0,00 %
22.06.2015 06:50 13,5 C 86 % 1015,1 hPa 0,0 l/m 0,0 km/h (0 Bft) S-SW 207 0 min 0,000 mm 1,0 UV-I 92 W/m 11,2 C 13,5 C 0,0 km/h (0 Bft) 0,00 %
22.06.2015 06:55 13,4 C 86 % 1015,0 hPa 0,0 l/m 0,0 km/h (0 Bft) S 175 0 min 0,000 mm 1,0 UV-I 70 W/m 11,1 C 13,4 C 0,0 km/h (0 Bft) 0,00 %
22.06.2015 07:00 13,5 C 86 % 1015,0 hPa 0,0 l/m 0,4 km/h (0 Bft) O-SO 113 0 min 0,000 mm 1,0 UV-I 109 W/m 11,2 C 13,5 C 4,0 km/h (1 Bft) 0,00 %
22.06.2015 07:05 14,3 C 82 % 1014,7 hPa 0,0 l/m 0,0 km/h (0 Bft) SO 129 5 min 0,000 mm 1,0 UV-I 410 W/m 11,3 C 14,3 C 0,0 km/h (0 Bft) 0,00 %
22.06.2015 07:10 15,4 C 78 % 1014,8 hPa 0,0 l/m 0,7 km/h (0 Bft) S 174 5 min 0,000 mm 1,0 UV-I 433 W/m 11,6 C 15,4 C 4,0 km/h (1 Bft) 0,00 %
22.06.2015 07:15 16,2 C 75 % 1014,5 hPa 0,0 l/m 1,4 km/h (1 Bft) W-SW 256 5 min 0,000 mm 1,0 UV-I 475 W/m 11,8 C 16,2 C 4,0 km/h (1 Bft) 0,00 %
22.06.2015 07:20 16,3 C 74 % 1014,7 hPa 0,0 l/m 0,0 km/h (0 Bft) W-NW 303 5 min 0,000 mm 1,0 UV-I 251 W/m 11,7 C 16,3 C 0,0 km/h (0 Bft) 0,00 %
22.06.2015 07:25 15,9 C 75 % 1014,7 hPa 0,0 l/m 0,4 km/h (0 Bft) SO 127 0 min 0,000 mm 1,0 UV-I 136 W/m 11,5 C 15,9 C 4,0 km/h (1 Bft) 0,00 %
22.06.2015 07:30 15,4 C 78 % 1014,8 hPa 0,0 l/m 0,4 km/h (0 Bft) S 173 0 min 0,000 mm 1,0 UV-I 102 W/m 11,6 C 15,4 C 4,0 km/h (1 Bft) 0,00 %
22.06.2015 07:35 14,9 C 80 % 1014,7 hPa 0,0 l/m 1,4 km/h (1 Bft) SW 230 0 min 0,000 mm 1,0 UV-I 87 W/m 11,5 C 14,9 C 4,0 km/h (1 Bft) 0,00 %
22.06.2015 07:40 14,6 C 81 % 1015,0 hPa 0,0 l/m 0,0 km/h (0 Bft) W-NW 292 0 min 0,000 mm 1,0 UV-I 153 W/m 11,4 C 14,6 C 0,0 km/h (0 Bft) 0,00 %
22.06.2015 07:45 14,5 C 81 % 1015,1 hPa 0,0 l/m 0,0 km/h (0 Bft) S-SW 197 0 min 0,000 mm 1,0 UV-I 130 W/m 11,3 C 14,5 C 0,0 km/h (0 Bft) 0,00 %
22.06.2015 07:50 14,4 C 82 % 1015,2 hPa 0,0 l/m 0,7 km/h (0 Bft) S 173 0 min 0,000 mm 1,0 UV-I 103 W/m 11,4 C 14,4 C 4,0 km/h (1 Bft) 0,00 %
22.06.2015 07:55 14,3 C 83 % 1015,2 hPa 0,0 l/m 0,0 km/h (0 Bft) O-SO 112 0 min 0,000 mm 1,0 UV-I 114 W/m 11,5 C 14,3 C 0,0 km/h (0 Bft) 0,00 %
22.06.2015 08:00 14,2 C 84 % 1015,3 hPa 0,0 l/m 0,0 km/h (0 Bft) SW 215 0 min 0,000 mm 1,0 UV-I 112 W/m 11,5 C 14,2 C 0,0 km/h (0 Bft) 0,00 %
22.06.2015 08:05 14,2 C 85 % 1015,4 hPa 0,0 l/m 0,0 km/h (0 Bft) W 259 0 min 0,000 mm 1,0 UV-I 111 W/m 11,7 C 14,2 C 0,0 km/h (0 Bft) 0,00 %
22.06.2015 08:10 14,1 C 85 % 1015,3 hPa 0,0 l/m 1,4 km/h (1 Bft) SW 227 0 min 0,000 mm 1,0 UV-I 109 W/m 11,6 C 14,1 C 4,0 km/h (1 Bft) 0,00 %
22.06.2015 08:15 14,0 C 86 % 1015,3 hPa 0,3 l/m 0,0 km/h (0 Bft) SO 136 0 min 0,000 mm 1,0 UV-I 124 W/m 11,7 C 14,0 C 0,0 km/h (0 Bft) 0,00 %
22.06.2015 08:20 14,0 C 86 % 1015,4 hPa 0,0 l/m 1,8 km/h (1 Bft) O-SO 109 0 min 0,000 mm 1,0 UV-I 121 W/m 11,7 C 14,0 C 4,0 km/h (1 Bft) 0,00 %
22.06.2015 08:25 14,0 C 86 % 1015,1 hPa 0,0 l/m 0,7 km/h (0 Bft) NO 49 0 min 0,000 mm 1,0 UV-I 132 W/m 11,7 C 14,0 C 4,0 km/h (1 Bft) 0,00 %
22.06.2015 08:30 14,0 C 86 % 1015,3 hPa 0,0 l/m 0,4 km/h (0 Bft) SO 129 0 min 0,000 mm 1,0 UV-I 134 W/m 11,7 C 14,0 C 4,0 km/h (1 Bft) 0,00 %
22.06.2015 08:35 14,1 C 85 % 1015,1 hPa 0,0 l/m 0,7 km/h (0 Bft) O-SO 114 0 min 0,000 mm 1,0 UV-I 146 W/m 11,6 C 14,1 C 4,0 km/h (1 Bft) 0,00 %
22.06.2015 08:40 14,2 C 85 % 1015,4 hPa 0,0 l/m 0,0 km/h (0 Bft) O 80 0 min 0,000 mm 1,0 UV-I 180 W/m 11,7 C 14,2 C 0,0 km/h (0 Bft) 0,00 %
22.06.2015 08:45 14,3 C 84 % 1015,1 hPa 0,0 l/m 0,0 km/h (0 Bft) O-SO 121 0 min 0,000 mm 1,0 UV-I 181 W/m 11,6 C 14,3 C 0,0 km/h (0 Bft) 0,00 %
22.06.2015 08:50 14,5 C 84 % 1015,2 hPa 0,0 l/m 0,0 km/h (0 Bft) SO 143 0 min 0,000 mm 2,0 UV-I 201 W/m 11,8 C 14,5 C 0,0 km/h (0 Bft) 0,00 %
22.06.2015 08:55 14,7 C 84 % 1014,9 hPa 0,0 l/m 0,0 km/h (0 Bft) S-SW 212 0 min 0,000 mm 2,0 UV-I 233 W/m 12,0 C 14,7 C 0,0 km/h (0 Bft) 0,00 %
22.06.2015 09:00 15,0 C 81 % 1014,8 hPa 0,0 l/m 1,4 km/h (1 Bft) S 190 0 min 0,000 mm 2,0 UV-I 238 W/m 11,8 C 15,0 C 4,0 km/h (1 Bft) 0,00 %
22.06.2015 09:05 15,3 C 81 % 1014,7 hPa 0,0 l/m 0,0 km/h (0 Bft) O-SO 102 5 min 0,000 mm 2,0 UV-I 334 W/m 12,1 C 15,3 C 0,0 km/h (0 Bft) 0,00 %
22.06.2015 09:10 15,9 C 79 % 1014,8 hPa 0,0 l/m 2,2 km/h (1 Bft) S-SW 207 5 min 0,000 mm 2,0 UV-I 535 W/m 12,3 C 15,9 C 4,0 km/h (1 Bft) 0,00 %
22.06.2015 09:15 16,8 C 76 % 1014,3 hPa 0,0 l/m 1,4 km/h (1 Bft) W-SW 255 5 min 0,000 mm 3,0 UV-I 392 W/m 12,5 C 16,8 C 4,0 km/h (1 Bft) 0,00 %
22.06.2015 09:20 17,5 C 73 % 1014,5 hPa 0,0 l/m 1,4 km/h (1 Bft) SO 137 5 min 0,000 mm 1,0 UV-I 523 W/m 12,6 C 17,5 C 4,0 km/h (1 Bft) 0,00 %
22.06.2015 09:25 17,8 C 72 % 1014,3 hPa 0,0 l/m 5,4 km/h (1 Bft) W-SW 238 0 min 0,000 mm 2,0 UV-I 217 W/m 12,7 C 17,8 C 7,9 km/h (2 Bft) 0,00 %
22.06.2015 09:30 17,9 C 71 % 1014,2 hPa 0,0 l/m 0,7 km/h (0 Bft) W-NW 294 5 min 0,000 mm 3,0 UV-I 579 W/m 12,6 C 17,9 C 4,0 km/h (1 Bft) 0,00 %
22.06.2015 09:35 18,1 C 71 % 1014,2 hPa 0,0 l/m 0,0 km/h (0 Bft) SO 131 5 min 0,000 mm 3,0 UV-I 429 W/m 12,8 C 18,1 C 0,0 km/h (0 Bft) 0,00 %
22.06.2015 09:40 18,6 C 69 % 1014,1 hPa 0,0 l/m 0,0 km/h (0 Bft) W 278 5 min 0,000 mm 3,0 UV-I 555 W/m 12,8 C 18,6 C 0,0 km/h (0 Bft) 0,00 %
22.06.2015 09:45 19,1 C 66 % 1014,0 hPa 0,0 l/m 1,4 km/h (1 Bft) W 271 5 min 0,000 mm 3,0 UV-I 695 W/m 12,6 C 19,1 C 4,0 km/h (1 Bft) 0,00 %
22.06.2015 09:50 19,7 C 63 % 1014,0 hPa 0,0 l/m 0,0 km/h (0 Bft) O-NO 60 5 min 0,000 mm 3,0 UV-I 709 W/m 12,5 C 19,7 C 0,0 km/h (0 Bft) 0,00 %
22.06.2015 09:55 19,8 C 63 % 1013,8 hPa 0,0 l/m 2,2 km/h (1 Bft) S-SO 167 5 min 0,000 mm 3,0 UV-I 574 W/m 12,5 C 19,8 C 4,0 km/h (1 Bft) 0,00 %
22.06.2015 10:00 19,6 C 62 % 1013,8 hPa 0,0 l/m 4,0 km/h (1 Bft) S-SW 209 5 min 0,000 mm 3,0 UV-I 635 W/m 12,1 C 19,6 C 4,0 km/h (1 Bft) 0,00 %
22.06.2015 10:05 19,6 C 63 % 1013,9 hPa 0,0 l/m 0,0 km/h (0 Bft) SO 137 5 min 0,000 mm 3,0 UV-I 659 W/m 12,4 C 19,6 C 0,0 km/h (0 Bft) 0,00 %
22.06.2015 10:10 19,7 C 64 % 1013,9 hPa 0,0 l/m 0,0 km/h (0 Bft) W-SW 256 5 min 0,000 mm 3,0 UV-I 678 W/m 12,7 C 19,7 C 0,0 km/h (0 Bft) 0,00 %
22.06.2015 10:15 19,7 C 63 % 1013,7 hPa 0,0 l/m 4,0 km/h (1 Bft) S-SW 197 5 min 0,000 mm 3,0 UV-I 685 W/m 12,5 C 19,7 C 7,9 km/h (2 Bft) 0,00 %
22.06.2015 10:20 19,6 C 65 % 1013,7 hPa 0,0 l/m 6,8 km/h (2 Bft) W-NW 292 5 min 0,000 mm 4,0 UV-I 656 W/m 12,8 C 19,4 C 11,9 km/h (2 Bft) 0,00 %
22.06.2015 10:25 19,8 C 60 % 1013,6 hPa 0,0 l/m 1,4 km/h (1 Bft) W-SW 237 5 min 0,000 mm 4,0 UV-I 650 W/m 11,8 C 19,8 C 4,0 km/h (1 Bft) 0,00 %
22.06.2015 10:30 20,3 C 60 % 1013,5 hPa 0,0 l/m 2,2 km/h (1 Bft) SW 214 5 min 0,000 mm 3,0 UV-I 677 W/m 12,3 C 20,3 C 4,0 km/h (1 Bft) 0,00 %
22.06.2015 10:35 20,1 C 61 % 1013,5 hPa 0,0 l/m 4,0 km/h (1 Bft) SW 217 5 min 0,000 mm 4,0 UV-I 682 W/m 12,3 C 20,1 C 7,9 km/h (2 Bft) 0,00 %
22.06.2015 10:40 20,0 C 60 % 1013,5 hPa 0,0 l/m 7,2 km/h (2 Bft) W 276 5 min 0,000 mm 4,0 UV-I 672 W/m 12,0 C 19,7 C 11,9 km/h (2 Bft) 0,00 %
22.06.2015 10:45 20,2 C 59 % 1013,3 hPa 0,0 l/m 7,2 km/h (2 Bft) S-SW 213 5 min 0,000 mm 4,0 UV-I 671 W/m 11,9 C 19,9 C 11,9 km/h (2 Bft) 0,00 %
22.06.2015 10:50 20,2 C 59 % 1013,3 hPa 0,0 l/m 4,3 km/h (1 Bft) W 276 5 min 0,000 mm 4,0 UV-I 740 W/m 11,9 C 20,2 C 7,9 km/h (2 Bft) 0,00 %
22.06.2015 10:55 20,5 C 55 % 1013,2 hPa 0,0 l/m 4,3 km/h (1 Bft) W-SW 256 5 min 0,000 mm 4,0 UV-I 719 W/m 11,1 C 20,5 C 7,9 km/h (2 Bft) 0,00 %
22.06.2015 11:00 20,9 C 58 % 1013,0 hPa 0,0 l/m 0,4 km/h (0 Bft) NO 53 5 min 0,000 mm 4,0 UV-I 723 W/m 12,3 C 20,9 C 4,0 km/h (1 Bft) 0,00 %
22.06.2015 11:05 21,3 C 54 % 1012,8 hPa 0,0 l/m 0,0 km/h (0 Bft) O-SO 104 5 min 0,000 mm 4,0 UV-I 742 W/m 11,6 C 21,3 C 0,0 km/h (0 Bft) 0,00 %
22.06.2015 11:10 21,6 C 54 % 1013,0 hPa 0,0 l/m 7,9 km/h (2 Bft) S 172 5 min 0,000 mm 4,0 UV-I 722 W/m 11,9 C 21,1 C 11,9 km/h (2 Bft) 0,00 %
22.06.2015 11:15 21,7 C 57 % 1012,6 hPa 0,0 l/m 1,4 km/h (1 Bft) S 174 5 min 0,000 mm 4,0 UV-I 744 W/m 12,8 C 21,7 C 4,0 km/h (1 Bft) 0,00 %
22.06.2015 11:20 22,0 C 54 % 1012,7 hPa 0,0 l/m 4,0 km/h (1 Bft) W-NW 284 5 min 0,000 mm 5,0 UV-I 791 W/m 12,3 C 22,0 C 4,0 km/h (1 Bft) 0,00 %
22.06.2015 11:25 22,0 C 52 % 1012,6 hPa 0,0 l/m 5,4 km/h (1 Bft) W-SW 240 5 min 0,000 mm 5,0 UV-I 778 W/m 11,7 C 22,0 C 7,9 km/h (2 Bft) 0,00 %
22.06.2015 11:30 21,8 C 52 % 1012,4 hPa 0,0 l/m 0,7 km/h (0 Bft) S 176 5 min 0,000 mm 5,0 UV-I 684 W/m 11,5 C 21,8 C 4,0 km/h (1 Bft) 0,00 %
22.06.2015 11:35 21,5 C 52 % 1012,6 hPa 0,0 l/m 5,8 km/h (2 Bft) W-SW 256 0 min 0,000 mm 4,0 UV-I 458 W/m 11,2 C 21,5 C 7,9 km/h (2 Bft) 0,00 %
22.06.2015 11:40 21,5 C 52 % 1012,6 hPa 0,0 l/m 5,4 km/h (1 Bft) W-SW 256 5 min 0,000 mm 5,0 UV-I 828 W/m 11,2 C 21,5 C 7,9 km/h (2 Bft) 0,00 %
22.06.2015 11:45 21,8 C 53 % 1012,4 hPa 0,0 l/m 0,0 km/h (0 Bft) W-SW 254 5 min 0,000 mm 5,0 UV-I 756 W/m 11,8 C 21,8 C 0,0 km/h (0 Bft) 0,00 %
22.06.2015 11:50 22,4 C 52 % 1012,3 hPa 0,0 l/m 0,7 km/h (0 Bft) N 354 5 min 0,000 mm 5,0 UV-I 804 W/m 12,1 C 22,4 C 4,0 km/h (1 Bft) 0,00 %
22.06.2015 11:55 22,7 C 49 % 1012,1 hPa 0,0 l/m 4,3 km/h (1 Bft) NW 317 5 min 0,000 mm 6,0 UV-I 819 W/m 11,4 C 22,7 C 7,9 km/h (2 Bft) 0,00 %
22.06.2015 12:00 22,8 C 50 % 1011,9 hPa 0,0 l/m 3,2 km/h (1 Bft) W-SW 256 5 min 0,000 mm 6,0 UV-I 966 W/m 11,8 C 22,8 C 4,0 km/h (1 Bft) 0,00 %
22.06.2015 12:05 22,8 C 51 % 1011,9 hPa 0,0 l/m 0,0 km/h (0 Bft) W-NW 303 5 min 0,000 mm 5,0 UV-I 872 W/m 12,1 C 22,8 C 0,0 km/h (0 Bft) 0,00 %
22.06.2015 12:10 22,8 C 49 % 1011,9 hPa 0,0 l/m 4,0 km/h (1 Bft) W 273 0 min 0,000 mm 2,0 UV-I 306 W/m 11,5 C 22,8 C 7,9 km/h (2 Bft) 0,00 %
22.06.2015 12:15 22,7 C 51 % 1011,9 hPa 0,0 l/m 1,8 km/h (1 Bft) W-SW 256 0 min 0,000 mm 5,0 UV-I 456 W/m 12,0 C 22,7 C 4,0 km/h (1 Bft) 0,00 %
22.06.2015 12:20 22,9 C 47 % 1011,8 hPa 0,0 l/m 0,0 km/h (0 Bft) S-SO 148 5 min 0,000 mm 5,0 UV-I 792 W/m 11,0 C 22,9 C 0,0 km/h (0 Bft) 0,00 %
22.06.2015 12:25 23,5 C 46 % 1011,5 hPa 0,0 l/m 2,2 km/h (1 Bft) SO 141 5 min 0,000 mm 5,0 UV-I 731 W/m 11,2 C 23,5 C 7,9 km/h (2 Bft) 0,00 %
22.06.2015 12:30 23,6 C 46 % 1011,5 hPa 0,0 l/m 1,4 km/h (1 Bft) SW 231 5 min 0,000 mm 5,0 UV-I 827 W/m 11,3 C 23,6 C 4,0 km/h (1 Bft) 0,00 %
22.06.2015 12:35 23,5 C 46 % 1011,4 hPa 0,0 l/m 0,0 km/h (0 Bft) O 94 5 min 0,000 mm 5,0 UV-I 867 W/m 11,2 C 23,5 C 0,0 km/h (0 Bft) 0,00 %
22.06.2015 12:40 23,7 C 46 % 1011,1 hPa 0,0 l/m 1,8 km/h (1 Bft) O-NO 60 5 min 0,000 mm 5,0 UV-I 873 W/m 11,4 C 23,7 C 4,0 km/h (1 Bft) 0,00 %
22.06.2015 12:45 23,9 C 43 % 1011,0 hPa 0,0 l/m 2,2 km/h (1 Bft) W 274 0 min 0,000 mm 3,0 UV-I 443 W/m 10,5 C 23,9 C 4,0 km/h (1 Bft) 0,00 %
22.06.2015 12:50 24,0 C 41 % 1010,8 hPa 0,0 l/m 0,4 km/h (0 Bft) SW 221 5 min 0,000 mm 6,0 UV-I 889 W/m 9,9 C 24,0 C 4,0 km/h (1 Bft) 0,00 %
22.06.2015 12:55 24,3 C 41 % 1010,6 hPa 0,0 l/m 0,4 km/h (0 Bft) O-SO 116 5 min 0,000 mm 5,0 UV-I 771 W/m 10,2 C 24,3 C 4,0 km/h (1 Bft) 0,00 %
22.06.2015 13:00 24,4 C 43 % 1010,6 hPa 0,0 l/m 2,2 km/h (1 Bft) SW 225 5 min 0,000 mm 5,0 UV-I 848 W/m 11,0 C 24,4 C 4,0 km/h (1 Bft) 0,00 %
22.06.2015 13:05 24,5 C 42 % 1010,5 hPa 0,0 l/m 0,4 km/h (0 Bft) O 85 5 min 0,000 mm 4,0 UV-I 730 W/m 10,7 C 24,5 C 4,0 km/h (1 Bft) 0,00 %
22.06.2015 13:10 24,6 C 40 % 1010,4 hPa 0,0 l/m 7,9 km/h (2 Bft) SW 223 5 min 0,000 mm 5,0 UV-I 769 W/m 10,1 C 24,2 C 11,9 km/h (2 Bft) 0,00 %
22.06.2015 13:15 24,2 C 42 % 1010,2 hPa 0,0 l/m 0,4 km/h (0 Bft) SW 230 5 min 0,000 mm 4,0 UV-I 639 W/m 10,5 C 24,2 C 4,0 km/h (1 Bft) 0,00 %
22.06.2015 13:20 24,1 C 41 % 1010,3 hPa 0,0 l/m 10,8 km/h (2 Bft) SW 229 5 min 0,000 mm 3,0 UV-I 654 W/m 10,0 C 23,0 C 15,8 km/h (3 Bft) 0,00 %
22.06.2015 13:25 24,0 C 42 % 1010,0 hPa 0,0 l/m 0,0 km/h (0 Bft) SO 128 5 min 0,000 mm 3,0 UV-I 547 W/m 10,3 C 24,0 C 0,0 km/h (0 Bft) 0,00 %
22.06.2015 13:30 23,7 C 42 % 1010,0 hPa 0,0 l/m 0,4 km/h (0 Bft) S-SW 202 5 min 0,000 mm 4,0 UV-I 626 W/m 10,0 C 23,7 C 4,0 km/h (1 Bft) 0,00 %
22.06.2015 13:35 23,9 C 42 % 1010,1 hPa 0,0 l/m 0,4 km/h (0 Bft) S-SW 195 5 min 0,000 mm 4,0 UV-I 683 W/m 10,2 C 23,9 C 4,0 km/h (1 Bft) 0,00 %
22.06.2015 13:40 24,3 C 40 % 1009,7 hPa 0,0 l/m 1,8 km/h (1 Bft) N-NO 31 5 min 0,000 mm 4,0 UV-I 667 W/m 9,8 C 24,3 C 4,0 km/h (1 Bft) 0,00 %
22.06.2015 13:45 24,5 C 40 % 1009,5 hPa 0,0 l/m 0,7 km/h (0 Bft) NW 314 5 min 0,000 mm 5,0 UV-I 859 W/m 10,0 C 24,5 C 4,0 km/h (1 Bft) 0,00 %
22.06.2015 13:50 24,6 C 40 % 1009,5 hPa 0,0 l/m 4,0 km/h (1 Bft) N 352 5 min 0,000 mm 4,0 UV-I 729 W/m 10,1 C 24,6 C 7,9 km/h (2 Bft) 0,00 %
22.06.2015 13:55 24,6 C 37 % 1009,4 hPa 0,0 l/m 4,3 km/h (1 Bft) W-SW 256 5 min 0,000 mm 4,0 UV-I 803 W/m 8,9 C 24,6 C 7,9 km/h (2 Bft) 0,00 %
22.06.2015 14:00 24,7 C 37 % 1009,3 hPa 0,0 l/m 1,8 km/h (1 Bft) SO 138 5 min 0,000 mm 5,0 UV-I 860 W/m 9,0 C 24,7 C 4,0 km/h (1 Bft) 0,00 %
22.06.2015 14:05 24,8 C 35 % 1009,4 hPa 0,0 l/m 9,7 km/h (2 Bft) W-NW 291 5 min 0,000 mm 5,0 UV-I 951 W/m 8,3 C 24,0 C 15,8 km/h (3 Bft) 0,00 %
22.06.2015 14:10 24,6 C 35 % 1009,2 hPa 0,0 l/m 8,3 km/h (2 Bft) W-NW 294 5 min 0,000 mm 4,0 UV-I 818 W/m 8,1 C 24,1 C 11,9 km/h (2 Bft) 0,00 %
22.06.2015 14:15 24,2 C 36 % 1009,2 hPa 0,0 l/m 2,2 km/h (1 Bft) SO 136 5 min 0,000 mm 4,0 UV-I 653 W/m 8,2 C 24,2 C 4,0 km/h (1 Bft) 0,00 %
22.06.2015 14:20 24,2 C 34 % 1009,1 hPa 0,0 l/m 6,5 km/h (2 Bft) SO 135 5 min 0,000 mm 3,0 UV-I 539 W/m 7,3 C 24,2 C 11,9 km/h (2 Bft) 0,00 %
22.06.2015 14:25 23,9 C 39 % 1009,1 hPa 0,0 l/m 4,3 km/h (1 Bft) S-SW 213 5 min 0,000 mm 3,0 UV-I 637 W/m 9,1 C 23,9 C 7,9 km/h (2 Bft) 0,00 %
22.06.2015 14:30 23,7 C 37 % 1008,9 hPa 0,0 l/m 4,0 km/h (1 Bft) O-NO 68 5 min 0,000 mm 3,0 UV-I 500 W/m 8,1 C 23,7 C 7,9 km/h (2 Bft) 0,00 %
22.06.2015 14:35 23,8 C 36 % 1008,8 hPa 0,0 l/m 7,2 km/h (2 Bft) W-SW 256 0 min 0,000 mm 2,0 UV-I 441 W/m 7,8 C 23,6 C 11,9 km/h (2 Bft) 0,00 %
22.06.2015 14:40 23,7 C 38 % 1009,0 hPa 0,0 l/m 3,2 km/h (1 Bft) S-SO 161 5 min 0,000 mm 3,0 UV-I 531 W/m 8,5 C 23,7 C 7,9 km/h (2 Bft) 0,00 %
22.06.2015 14:45 23,6 C 41 % 1008,9 hPa 0,0 l/m 4,3 km/h (1 Bft) S-SW 192 5 min 0,000 mm 3,0 UV-I 613 W/m 9,6 C 23,6 C 7,9 km/h (2 Bft) 0,00 %
22.06.2015 14:50 24,0 C 40 % 1008,9 hPa 0,0 l/m 5,8 km/h (2 Bft) SW 226 5 min 0,000 mm 3,0 UV-I 610 W/m 9,6 C 24,0 C 11,9 km/h (2 Bft) 0,00 %
22.06.2015 14:55 24,4 C 40 % 1008,7 hPa 0,0 l/m 9,4 km/h (2 Bft) SW 236 5 min 0,000 mm 4,0 UV-I 682 W/m 9,9 C 23,6 C 11,9 km/h (2 Bft) 0,00 %
22.06.2015 15:00 24,7 C 37 % 1008,6 hPa 0,0 l/m 0,4 km/h (0 Bft) S-SW 201 5 min 0,000 mm 3,0 UV-I 667 W/m 9,0 C 24,7 C 4,0 km/h (1 Bft) 0,00 %
22.06.2015 15:05 24,8 C 36 % 1008,6 hPa 0,0 l/m 0,4 km/h (0 Bft) O-SO 102 5 min 0,000 mm 3,0 UV-I 636 W/m 8,7 C 24,8 C 4,0 km/h (1 Bft) 0,00 %
22.06.2015 15:10 24,9 C 34 % 1008,4 hPa 0,0 l/m 0,7 km/h (0 Bft) W-SW 255 5 min 0,000 mm 3,0 UV-I 600 W/m 7,9 C 24,9 C 4,0 km/h (1 Bft) 0,00 %
22.06.2015 15:15 25,0 C 35 % 1008,3 hPa 0,0 l/m 0,0 km/h (0 Bft) O-SO 120 5 min 0,000 mm 3,0 UV-I 665 W/m 8,5 C 25,0 C 0,0 km/h (0 Bft) 0,00 %
22.06.2015 15:20 25,2 C 34 % 1008,5 hPa 0,0 l/m 4,7 km/h (1 Bft) S 173 5 min 0,000 mm 4,0 UV-I 711 W/m 8,2 C 25,2 C 7,9 km/h (2 Bft) 0,00 %
22.06.2015 15:25 25,0 C 34 % 1008,3 hPa 0,0 l/m 4,0 km/h (1 Bft) W-SW 256 5 min 0,000 mm 3,0 UV-I 599 W/m 8,0 C 25,0 C 4,0 km/h (1 Bft) 0,00 %
22.06.2015 15:30 24,8 C 37 % 1008,5 hPa 0,0 l/m 2,2 km/h (1 Bft) SW 227 5 min 0,000 mm 3,0 UV-I 591 W/m 9,1 C 24,8 C 4,0 km/h (1 Bft) 0,00 %
22.06.2015 15:35 24,5 C 36 % 1008,1 hPa 0,0 l/m 0,4 km/h (0 Bft) S 178 5 min 0,000 mm 3,0 UV-I 510 W/m 8,4 C 24,5 C 4,0 km/h (1 Bft) 0,00 %
22.06.2015 15:40 24,5 C 36 % 1008,3 hPa 0,0 l/m 1,4 km/h (1 Bft) O-NO 75 5 min 0,000 mm 3,0 UV-I 549 W/m 8,4 C 24,5 C 4,0 km/h (1 Bft) 0,00 %
22.06.2015 15:45 24,6 C 36 % 1008,3 hPa 0,0 l/m 4,0 km/h (1 Bft) SW 233 0 min 0,000 mm 2,0 UV-I 400 W/m 8,5 C 24,6 C 11,9 km/h (2 Bft) 0,00 %
22.06.2015 15:50 24,6 C 34 % 1008,4 hPa 0,0 l/m 8,3 km/h (2 Bft) W-SW 244 0 min 0,000 mm 2,0 UV-I 402 W/m 7,7 C 24,1 C 11,9 km/h (2 Bft) 0,00 %
22.06.2015 15:55 24,6 C 38 % 1008,2 hPa 0,0 l/m 4,3 km/h (1 Bft) W-SW 256 0 min 0,000 mm 2,0 UV-I 361 W/m 9,3 C 24,6 C 7,9 km/h (2 Bft) 0,00 %
22.06.2015 16:00 24,3 C 39 % 1008,3 hPa 0,0 l/m 0,0 km/h (0 Bft) N-NW 331 0 min 0,000 mm 2,0 UV-I 349 W/m 9,4 C 24,3 C 0,0 km/h (0 Bft) 0,00 %
22.06.2015 16:05 24,0 C 41 % 1008,3 hPa 0,0 l/m 0,0 km/h (0 Bft) O-SO 122 0 min 0,000 mm 2,0 UV-I 377 W/m 9,9 C 24,0 C 0,0 km/h (0 Bft) 0,00 %
22.06.2015 16:10 24,1 C 40 % 1008,1 hPa 0,0 l/m 0,0 km/h (0 Bft) O-SO 112 0 min 0,000 mm 2,0 UV-I 349 W/m 9,6 C 24,1 C 0,0 km/h (0 Bft) 0,00 %
22.06.2015 16:15 24,4 C 40 % 1008,1 hPa 0,0 l/m 0,0 km/h (0 Bft) SO 130 0 min 0,000 mm 2,0 UV-I 334 W/m 9,9 C 24,4 C 0,0 km/h (0 Bft) 0,00 %
22.06.2015 16:20 24,3 C 41 % 1008,2 hPa 0,0 l/m 0,0 km/h (0 Bft) S-SW 207 0 min 0,000 mm 2,0 UV-I 287 W/m 10,2 C 24,3 C 0,0 km/h (0 Bft) 0,00 %
22.06.2015 16:25 23,9 C 42 % 1008,2 hPa 0,0 l/m 0,0 km/h (0 Bft) S 175 0 min 0,000 mm 2,0 UV-I 277 W/m 10,2 C 23,9 C 0,0 km/h (0 Bft) 0,00 %
22.06.2015 16:30 23,5 C 44 % 1008,1 hPa 0,0 l/m 4,7 km/h (1 Bft) S 175 0 min 0,000 mm 2,0 UV-I 274 W/m 10,5 C 23,5 C 7,9 km/h (2 Bft) 0,00 %
22.06.2015 16:35 23,2 C 44 % 1008,3 hPa 0,0 l/m 3,2 km/h (1 Bft) SW 228 0 min 0,000 mm 2,0 UV-I 283 W/m 10,3 C 23,2 C 7,9 km/h (2 Bft) 0,00 %
22.06.2015 16:40 23,1 C 45 % 1008,3 hPa 0,0 l/m 0,4 km/h (0 Bft) S-SW 211 0 min 0,000 mm 2,0 UV-I 175 W/m 10,5 C 23,1 C 4,0 km/h (1 Bft) 0,00 %
22.06.2015 16:45 23,0 C 46 % 1009,0 hPa 0,0 l/m 4,3 km/h (1 Bft) S-SW 210 0 min 0,000 mm 1,0 UV-I 153 W/m 10,7 C 23,0 C 7,9 km/h (2 Bft) 0,00 %
22.06.2015 16:50 21,7 C 57 % 1009,6 hPa 0,0 l/m 16,6 km/h (3 Bft) S 178 0 min 0,000 mm 1,0 UV-I 220 W/m 12,8 C 19,0 C 24,1 km/h (4 Bft) 0,00 %
22.06.2015 16:55 19,6 C 64 % 1010,0 hPa 0,0 l/m 6,5 km/h (2 Bft) N 1 0 min 0,000 mm 1,0 UV-I 205 W/m 12,6 C 19,6 C 7,9 km/h (2 Bft) 0,00 %
22.06.2015 17:00 18,1 C 66 % 1010,3 hPa 0,0 l/m 4,7 km/h (1 Bft) W-SW 255 0 min 0,000 mm 1,0 UV-I 214 W/m 11,6 C 18,1 C 7,9 km/h (2 Bft) 0,00 %
22.06.2015 17:05 17,5 C 65 % 1010,6 hPa 0,0 l/m 0,7 km/h (0 Bft) NW 308 0 min 0,000 mm 1,0 UV-I 210 W/m 10,8 C 17,5 C 7,9 km/h (2 Bft) 0,00 %
22.06.2015 17:10 17,3 C 65 % 1010,6 hPa 0,0 l/m 0,4 km/h (0 Bft) S 177 0 min 0,000 mm 1,0 UV-I 164 W/m 10,7 C 17,3 C 4,0 km/h (1 Bft) 0,00 %
22.06.2015 17:15 17,1 C 64 % 1010,6 hPa 0,0 l/m 1,4 km/h (1 Bft) S-SW 192 0 min 0,000 mm 1,0 UV-I 122 W/m 10,2 C 17,1 C 7,9 km/h (2 Bft) 0,00 %
22.06.2015 17:20 16,8 C 68 % 1011,1 hPa 0,0 l/m 14,0 km/h (3 Bft) W-SW 240 0 min 0,000 mm 1,0 UV-I 108 W/m 10,9 C 13,7 C 24,1 km/h (4 Bft) 0,00 %
22.06.2015 17:25 16,5 C 69 % 1011,1 hPa 0,0 l/m 0,7 km/h (0 Bft) W-SW 254 0 min 0,000 mm 1,0 UV-I 83 W/m 10,8 C 16,5 C 4,0 km/h (1 Bft) 0,00 %
22.06.2015 17:30 16,2 C 71 % 1011,4 hPa 0,0 l/m 0,4 km/h (0 Bft) S 182 0 min 0,000 mm 0,0 UV-I 64 W/m 10,9 C 16,2 C 4,0 km/h (1 Bft) 0,00 %
22.06.2015 17:35 15,8 C 72 % 1011,5 hPa 0,0 l/m 2,9 km/h (1 Bft) W-SW 255 0 min 0,000 mm 0,0 UV-I 72 W/m 10,8 C 15,8 C 4,0 km/h (1 Bft) 0,00 %
22.06.2015 17:40 15,6 C 72 % 1011,4 hPa 0,0 l/m 1,8 km/h (1 Bft) W-NW 294 0 min 0,000 mm 1,0 UV-I 87 W/m 10,6 C 15,6 C 4,0 km/h (1 Bft) 0,00 %
22.06.2015 17:45 15,4 C 75 % 1011,5 hPa 0,0 l/m 4,7 km/h (1 Bft) NO 35 0 min 0,000 mm 1,0 UV-I 92 W/m 11,0 C 15,4 C 11,9 km/h (2 Bft) 0,00 %
22.06.2015 17:50 15,2 C 78 % 1011,8 hPa 0,0 l/m 3,2 km/h (1 Bft) W-NW 294 0 min 0,000 mm 1,0 UV-I 90 W/m 11,4 C 15,2 C 7,9 km/h (2 Bft) 0,00 %
22.06.2015 17:55 15,1 C 80 % 1011,9 hPa 0,0 l/m 0,0 km/h (0 Bft) SO 131 0 min 0,000 mm 1,0 UV-I 64 W/m 11,7 C 15,1 C 0,0 km/h (0 Bft) 0,00 %
22.06.2015 18:00 14,9 C 81 % 1011,9 hPa 0,0 l/m 0,0 km/h (0 Bft) O-SO 123 0 min 0,000 mm 0,0 UV-I 58 W/m 11,7 C 14,9 C 0,0 km/h (0 Bft) 0,00 %
22.06.2015 18:05 14,7 C 81 % 1012,3 hPa 0,0 l/m 0,7 km/h (0 Bft) W-NW 287 0 min 0,000 mm 1,0 UV-I 44 W/m 11,5 C 14,7 C 4,0 km/h (1 Bft) 0,00 %
22.06.2015 18:10 14,6 C 80 % 1012,3 hPa 0,3 l/m 4,7 km/h (1 Bft) N 351 0 min 0,000 mm 0,0 UV-I 42 W/m 11,2 C 14,6 C 7,9 km/h (2 Bft) 0,00 %
22.06.2015 18:15 14,3 C 84 % 1012,5 hPa 0,3 l/m 0,0 km/h (0 Bft) SO 127 0 min 0,000 mm 0,0 UV-I 46 W/m 11,6 C 14,3 C 0,0 km/h (0 Bft) 0,00 %
22.06.2015 18:20 13,9 C 86 % 1012,5 hPa 0,3 l/m 0,4 km/h (0 Bft) O-SO 108 0 min 0,000 mm 0,0 UV-I 49 W/m 11,6 C 13,9 C 4,0 km/h (1 Bft) 0,00 %
22.06.2015 18:25 13,7 C 88 % 1012,9 hPa 0,3 l/m 0,0 km/h (0 Bft) SO 134 0 min 0,000 mm 0,0 UV-I 45 W/m 11,7 C 13,7 C 0,0 km/h (0 Bft) 0,00 %
22.06.2015 18:30 13,6 C 90 % 1012,8 hPa 0,3 l/m 2,2 km/h (1 Bft) W-SW 256 0 min 0,000 mm 0,0 UV-I 33 W/m 12,0 C 13,6 C 4,0 km/h (1 Bft) 0,00 %
22.06.2015 18:35 13,5 C 91 % 1013,0 hPa 0,6 l/m 0,0 km/h (0 Bft) S 188 0 min 0,000 mm 0,0 UV-I 41 W/m 12,1 C 13,5 C 0,0 km/h (0 Bft) 0,00 %
22.06.2015 18:40 13,1 C 91 % 1013,1 hPa 0,0 l/m 0,0 km/h (0 Bft) S 174 0 min 0,000 mm 0,0 UV-I 38 W/m 11,7 C 13,1 C 0,0 km/h (0 Bft) 0,00 %
22.06.2015 18:45 13,0 C 91 % 1013,3 hPa 0,3 l/m 0,0 km/h (0 Bft) S-SO 165 0 min 0,000 mm 0,0 UV-I 29 W/m 11,6 C 13,0 C 0,0 km/h (0 Bft) 0,00 %
22.06.2015 18:50 13,1 C 92 % 1013,2 hPa 0,0 l/m 0,0 km/h (0 Bft) O-SO 117 0 min 0,000 mm 0,0 UV-I 25 W/m 11,8 C 13,1 C 0,0 km/h (0 Bft) 0,00 %
22.06.2015 18:55 13,2 C 92 % 1013,3 hPa 0,0 l/m 0,0 km/h (0 Bft) S-SW 194 0 min 0,000 mm 0,0 UV-I 20 W/m 11,9 C 13,2 C 0,0 km/h (0 Bft) 0,00 %
22.06.2015 19:00 13,2 C 92 % 1013,4 hPa 0,0 l/m 0,0 km/h (0 Bft) SO 127 0 min 0,000 mm 0,0 UV-I 21 W/m 11,9 C 13,2 C 0,0 km/h (0 Bft) 0,00 %
22.06.2015 19:05 13,1 C 92 % 1013,3 hPa 0,3 l/m 0,0 km/h (0 Bft) SO 133 0 min 0,000 mm 0,0 UV-I 27 W/m 11,8 C 13,1 C 0,0 km/h (0 Bft) 0,00 %
22.06.2015 19:10 13,0 C 92 % 1013,5 hPa 0,0 l/m 0,0 km/h (0 Bft) S 173 0 min 0,000 mm 0,0 UV-I 31 W/m 11,7 C 13,0 C 0,0 km/h (0 Bft) 0,00 %
22.06.2015 19:15 12,9 C 93 % 1013,5 hPa 0,3 l/m 0,0 km/h (0 Bft) O 94 0 min 0,000 mm 0,0 UV-I 36 W/m 11,8 C 12,9 C 0,0 km/h (0 Bft) 0,00 %
22.06.2015 19:20 12,8 C 93 % 1013,6 hPa 0,0 l/m 0,0 km/h (0 Bft) SO 136 0 min 0,000 mm 0,0 UV-I 34 W/m 11,7 C 12,8 C 0,0 km/h (0 Bft) 0,00 %
22.06.2015 19:25 12,8 C 93 % 1013,5 hPa 0,3 l/m 0,0 km/h (0 Bft) SO 134 0 min 0,000 mm 0,0 UV-I 27 W/m 11,7 C 12,8 C 0,0 km/h (0 Bft) 0,00 %
22.06.2015 19:30 12,8 C 93 % 1013,4 hPa 0,0 l/m 0,0 km/h (0 Bft) O-SO 110 0 min 0,000 mm 0,0 UV-I 24 W/m 11,7 C 12,8 C 0,0 km/h (0 Bft) 0,00 %
22.06.2015 19:35 12,9 C 93 % 1013,3 hPa 0,0 l/m 0,0 km/h (0 Bft) S 180 0 min 0,000 mm 0,0 UV-I 23 W/m 11,8 C 12,9 C 0,0 km/h (0 Bft) 0,00 %
22.06.2015 19:40 12,9 C 94 % 1013,3 hPa 0,0 l/m 0,0 km/h (0 Bft) SO 144 0 min 0,000 mm 0,0 UV-I 20 W/m 12,0 C 12,9 C 0,0 km/h (0 Bft) 0,00 %
22.06.2015 19:45 12,9 C 94 % 1013,2 hPa 0,0 l/m 0,0 km/h (0 Bft) S 176 0 min 0,000 mm 0,0 UV-I 20 W/m 12,0 C 12,9 C 0,0 km/h (0 Bft) 0,00 %
22.06.2015 19:50 12,8 C 94 % 1013,1 hPa 0,0 l/m 0,0 km/h (0 Bft) SO 134 0 min 0,000 mm 0,0 UV-I 20 W/m 11,9 C 12,8 C 0,0 km/h (0 Bft) 0,00 %
22.06.2015 19:55 12,8 C 94 % 1013,1 hPa 0,0 l/m 0,0 km/h (0 Bft) SO 137 0 min 0,000 mm 0,0 UV-I 19 W/m 11,9 C 12,8 C 0,0 km/h (0 Bft) 0,00 %
22.06.2015 20:00 12,8 C 94 % 1012,9 hPa 0,0 l/m 0,0 km/h (0 Bft) S 173 0 min 0,000 mm 0,0 UV-I 6 W/m 11,9 C 12,8 C 0,0 km/h (0 Bft) 0,00 %
22.06.2015 20:05 12,8 C 94 % 1013,0 hPa 0,0 l/m 0,0 km/h (0 Bft) S 173 0 min 0,000 mm 0,0 UV-I 8 W/m 11,9 C 12,8 C 0,0 km/h (0 Bft) 0,00 %
22.06.2015 20:10 12,8 C 94 % 1012,9 hPa 0,0 l/m 0,0 km/h (0 Bft) O 85 0 min 0,000 mm 0,0 UV-I 9 W/m 11,9 C 12,8 C 0,0 km/h (0 Bft) 0,00 %
22.06.2015 20:15 12,8 C 94 % 1013,0 hPa 0,3 l/m 0,0 km/h (0 Bft) S 173 0 min 0,000 mm 0,0 UV-I 4 W/m 11,9 C 12,8 C 0,0 km/h (0 Bft) 0,00 %
22.06.2015 20:20 12,8 C 93 % 1012,9 hPa 0,0 l/m 0,0 km/h (0 Bft) S 176 0 min 0,000 mm 0,0 UV-I 1 W/m 11,7 C 12,8 C 0,0 km/h (0 Bft) 0,00 %
22.06.2015 20:25 12,8 C 93 % 1012,9 hPa 0,0 l/m 0,0 km/h (0 Bft) S-SO 166 0 min 0,000 mm 0,0 UV-I 1 W/m 11,7 C 12,8 C 0,0 km/h (0 Bft) 0,00 %
22.06.2015 20:30 12,8 C 93 % 1012,7 hPa 0,0 l/m 0,0 km/h (0 Bft) S 178 0 min 0,000 mm 0,0 UV-I 1 W/m 11,7 C 12,8 C 0,0 km/h (0 Bft) 0,00 %
22.06.2015 20:35 12,8 C 93 % 1012,9 hPa 0,0 l/m 0,0 km/h (0 Bft) S 177 0 min 0,000 mm 0,0 UV-I 1 W/m 11,7 C 12,8 C 0,0 km/h (0 Bft) 0,00 %
22.06.2015 20:40 12,7 C 93 % 1012,6 hPa 0,0 l/m 0,0 km/h (0 Bft) SO 140 0 min 0,000 mm 0,0 UV-I 0 W/m 11,6 C 12,7 C 0,0 km/h (0 Bft) 0,00 %
22.06.2015 20:45 12,7 C 93 % 1012,5 hPa 0,0 l/m 0,0 km/h (0 Bft) S 176 0 min 0,000 mm 0,0 UV-I 0 W/m 11,6 C 12,7 C 0,0 km/h (0 Bft) 0,00 %
22.06.2015 20:50 12,7 C 93 % 1012,6 hPa 0,3 l/m 0,0 km/h (0 Bft) S 181 0 min 0,000 mm 0,0 UV-I 0 W/m 11,6 C 12,7 C 0,0 km/h (0 Bft) 0,00 %
22.06.2015 20:55 12,7 C 93 % 1012,6 hPa 0,0 l/m 0,0 km/h (0 Bft) SO 133 0 min 0,000 mm 0,0 UV-I 0 W/m 11,6 C 12,7 C 0,0 km/h (0 Bft) 0,00 %
22.06.2015 21:00 12,6 C 93 % 1012,3 hPa 0,0 l/m 0,0 km/h (0 Bft) S 176 0 min 0,000 mm 0,0 UV-I 0 W/m 11,5 C 12,6 C 0,0 km/h (0 Bft) 0,00 %
22.06.2015 21:05 12,6 C 94 % 1012,3 hPa 0,0 l/m 0,0 km/h (0 Bft) SO 134 0 min 0,000 mm 0,0 UV-I 0 W/m 11,7 C 12,6 C 0,0 km/h (0 Bft) 0,00 %
22.06.2015 21:10 12,5 C 94 % 1012,2 hPa 0,0 l/m 0,0 km/h (0 Bft) S 173 0 min 0,000 mm 0,0 UV-I 0 W/m 11,6 C 12,5 C 0,0 km/h (0 Bft) 0,00 %
22.06.2015 21:15 12,5 C 94 % 1012,2 hPa 0,0 l/m 0,0 km/h (0 Bft) S 174 0 min 0,000 mm 0,0 UV-I 0 W/m 11,6 C 12,5 C 0,0 km/h (0 Bft) 0,00 %
22.06.2015 21:20 12,4 C 94 % 1012,1 hPa 0,0 l/m 0,0 km/h (0 Bft) S-SO 157 0 min 0,000 mm 0,0 UV-I 0 W/m 11,5 C 12,4 C 0,0 km/h (0 Bft) 0,00 %
22.06.2015 21:25 12,3 C 94 % 1012,1 hPa 0,0 l/m 0,4 km/h (0 Bft) SO 130 0 min 0,000 mm 0,0 UV-I 0 W/m 11,4 C 12,3 C 4,0 km/h (1 Bft) 0,00 %
22.06.2015 21:30 12,2 C 94 % 1011,7 hPa 0,0 l/m 0,0 km/h (0 Bft) SO 129 0 min 0,000 mm 0,0 UV-I 0 W/m 11,3 C 12,2 C 0,0 km/h (0 Bft) 0,00 %
22.06.2015 21:35 12,1 C 94 % 1011,5 hPa 0,0 l/m 0,7 km/h (0 Bft) O-SO 115 0 min 0,000 mm 0,0 UV-I 0 W/m 11,2 C 12,1 C 4,0 km/h (1 Bft) 0,00 %
22.06.2015 21:40 12,0 C 94 % 1011,3 hPa 0,0 l/m 1,4 km/h (1 Bft) O-SO 120 0 min 0,000 mm 0,0 UV-I 0 W/m 11,1 C 12,0 C 4,0 km/h (1 Bft) 0,00 %
22.06.2015 21:45 12,0 C 94 % 1011,3 hPa 0,0 l/m 0,4 km/h (0 Bft) S 174 0 min 0,000 mm 0,0 UV-I 0 W/m 11,1 C 12,0 C 4,0 km/h (1 Bft) 0,00 %
22.06.2015 21:50 12,0 C 94 % 1011,3 hPa 0,0 l/m 1,4 km/h (1 Bft) O-SO 119 0 min 0,000 mm 0,0 UV-I 0 W/m 11,1 C 12,0 C 4,0 km/h (1 Bft) 0,00 %
22.06.2015 21:55 12,0 C 94 % 1011,2 hPa 0,0 l/m 0,4 km/h (0 Bft) O-SO 115 0 min 0,000 mm 0,0 UV-I 0 W/m 11,1 C 12,0 C 4,0 km/h (1 Bft) 0,00 %
22.06.2015 22:00 12,0 C 94 % 1010,9 hPa 0,0 l/m 0,0 km/h (0 Bft) SO 143 0 min 0,000 mm 0,0 UV-I 0 W/m 11,1 C 12,0 C 0,0 km/h (0 Bft) 0,00 %
22.06.2015 22:05 12,0 C 94 % 1011,0 hPa 0,0 l/m 0,0 km/h (0 Bft) SO 127 0 min 0,000 mm 0,0 UV-I 0 W/m 11,1 C 12,0 C 0,0 km/h (0 Bft) 0,00 %
22.06.2015 22:10 12,1 C 94 % 1010,9 hPa 0,0 l/m 0,0 km/h (0 Bft) SO 127 0 min 0,000 mm 0,0 UV-I 0 W/m 11,2 C 12,1 C 0,0 km/h (0 Bft) 0,00 %
22.06.2015 22:15 12,1 C 94 % 1010,9 hPa 0,0 l/m 0,0 km/h (0 Bft) SO 146 0 min 0,000 mm 0,0 UV-I 0 W/m 11,2 C 12,1 C 0,0 km/h (0 Bft) 0,00 %
22.06.2015 22:20 12,1 C 94 % 1010,9 hPa 0,0 l/m 0,0 km/h (0 Bft) S 178 0 min 0,000 mm 0,0 UV-I 0 W/m 11,2 C 12,1 C 0,0 km/h (0 Bft) 0,00 %
22.06.2015 22:25 12,1 C 94 % 1010,8 hPa 0,0 l/m 0,0 km/h (0 Bft) S 173 0 min 0,000 mm 0,0 UV-I 0 W/m 11,2 C 12,1 C 0,0 km/h (0 Bft) 0,00 %
22.06.2015 22:30 12,1 C 94 % 1010,8 hPa 0,0 l/m 0,0 km/h (0 Bft) S 177 0 min 0,000 mm 0,0 UV-I 0 W/m 11,2 C 12,1 C 0,0 km/h (0 Bft) 0,00 %
22.06.2015 22:35 12,1 C 94 % 1010,6 hPa 0,0 l/m 4,7 km/h (1 Bft) SO 133 0 min 0,000 mm 0,0 UV-I 0 W/m 11,2 C 12,1 C 7,9 km/h (2 Bft) 0,00 %
22.06.2015 22:40 12,1 C 94 % 1010,4 hPa 0,0 l/m 4,0 km/h (1 Bft) O-SO 106 0 min 0,000 mm 0,0 UV-I 0 W/m 11,2 C 12,1 C 7,9 km/h (2 Bft) 0,00 %
22.06.2015 22:45 12,0 C 94 % 1010,4 hPa 0,0 l/m 6,5 km/h (2 Bft) S 180 0 min 0,000 mm 0,0 UV-I 0 W/m 11,1 C 12,0 C 7,9 km/h (2 Bft) 0,00 %
22.06.2015 22:50 12,0 C 93 % 1009,8 hPa 0,0 l/m 3,2 km/h (1 Bft) O 96 0 min 0,000 mm 0,0 UV-I 0 W/m 10,9 C 12,0 C 4,0 km/h (1 Bft) 0,00 %
22.06.2015 22:55 11,9 C 94 % 1009,9 hPa 0,0 l/m 2,2 km/h (1 Bft) SO 141 0 min 0,000 mm 0,0 UV-I 0 W/m 11,0 C 11,9 C 4,0 km/h (1 Bft) 0,00 %
22.06.2015 23:00 11,9 C 94 % 1009,7 hPa 0,3 l/m 2,2 km/h (1 Bft) O-SO 117 0 min 0,000 mm 0,0 UV-I 0 W/m 11,0 C 11,9 C 4,0 km/h (1 Bft) 0,00 %
22.06.2015 23:05 11,8 C 94 % 1009,4 hPa 0,0 l/m 5,8 km/h (2 Bft) SO 135 0 min 0,000 mm 0,0 UV-I 0 W/m 10,9 C 11,8 C 7,9 km/h (2 Bft) 0,00 %
22.06.2015 23:10 11,8 C 94 % 1009,2 hPa 0,0 l/m 6,5 km/h (2 Bft) O 89 0 min 0,000 mm 0,0 UV-I 0 W/m 10,9 C 11,8 C 7,9 km/h (2 Bft) 0,00 %
22.06.2015 23:15 11,7 C 94 % 1008,9 hPa 0,3 l/m 2,9 km/h (1 Bft) O-SO 120 0 min 0,000 mm 0,0 UV-I 0 W/m 10,8 C 11,7 C 4,0 km/h (1 Bft) 0,00 %
22.06.2015 23:20 11,7 C 94 % 1009,3 hPa 0,3 l/m 0,0 km/h (0 Bft) S-SW 194 0 min 0,000 mm 0,0 UV-I 0 W/m 10,8 C 11,7 C 0,0 km/h (0 Bft) 0,00 %
22.06.2015 23:25 11,6 C 94 % 1008,9 hPa 0,0 l/m 0,7 km/h (0 Bft) O-SO 123 0 min 0,000 mm 0,0 UV-I 0 W/m 10,7 C 11,6 C 4,0 km/h (1 Bft) 0,00 %
22.06.2015 23:30 11,6 C 95 % 1008,7 hPa 0,0 l/m 0,4 km/h (0 Bft) O-SO 111 0 min 0,000 mm 0,0 UV-I 0 W/m 10,8 C 11,6 C 4,0 km/h (1 Bft) 0,00 %
22.06.2015 23:35 11,6 C 95 % 1008,0 hPa 0,6 l/m 1,8 km/h (1 Bft) NO 45 0 min 0,000 mm 0,0 UV-I 0 W/m 10,8 C 11,6 C 4,0 km/h (1 Bft) 0,00 %
22.06.2015 23:40 11,6 C 95 % 1007,8 hPa 0,3 l/m 9,0 km/h (2 Bft) SO 129 0 min 0,000 mm 0,0 UV-I 0 W/m 10,8 C 9,9 C 11,9 km/h (2 Bft) 0,00 %
22.06.2015 23:45 11,5 C 95 % 1007,1 hPa 0,3 l/m 9,7 km/h (2 Bft) O-SO 109 0 min 0,000 mm 0,0 UV-I 0 W/m 10,7 C 9,4 C 11,9 km/h (2 Bft) 0,00 %
22.06.2015 23:50 11,4 C 95 % 1007,0 hPa 0,0 l/m 1,8 km/h (1 Bft) NW 312 0 min 0,000 mm 0,0 UV-I 0 W/m 10,6 C 11,4 C 4,0 km/h (1 Bft) 0,00 %
_ Min-Zeit 00:00 14:20 23:50 - 00:00 - - - - - - 14:20 23:45 00:00 00:00
Minimum _ 10,5 C 34 % 1007,0 hPa - 0,0 km/h (0 Bft) - - - - - - 7,3 C 9,4 C 0,0 km/h (0 Bft) 0,00 %
_ Max-Zeit 15:20 23:30 00:00 18:35 16:50 - - 06:00 00:00 11:55 12:00 10:20 15:20 16:50 00:00
Maximum _ 25,2 C 95 % 1017,1 hPa 0,6 l/m 16,6 km/h
S (3 Bft)
- - 5 min 0,000 mm 6,0 UV-I 966 W/m 12,8 C 25,2 C 24,1 km/h
S (4 Bft)
0,00 %
Durchschnitt _ 15,8 C 76 % 1012,8 hPa #6,9 l/m 1,4 km/h (1 Bft) W-SW - #6:50 h #0,000 mm 2,8 UV-I 357 W/m 10,7 C 15,8 C 2,8 km/h (1 Bft) 0,00 %